Regional Weather Roundup
Issued by NWS State College, PA

Home | Current Version | Previous Version | Text Only | Print | Product List | Glossary On
Versions: 1 2 3 4 5 6 7 8 9 10 11 12 13 14 15 16 17 18 19 20 21 22 23 24 25 26 27 28 29 30 31 32 33 34 35 36 37 38 39 40 41 42 43 44 45 46 47 48 49 50
000
ASUS41 KCTP 050310
RWRCTP

REGIONAL WEATHER ROUNDUP
NATIONAL WEATHER SERVICE STATE COLLEGE PA
1100 PM EDT TUE AUG 04 2015

Note: "fair" indicates few or no clouds below 12,000 feet with no
significant weather and/or obstructions to visibility.

* = STATION THAT DOES NOT REPORT PRECIPITATION /E.G. RAIN...SNOW...ETC/
    THUNDER OR FOG.

PAZ002>004-007>009-013>016-020>023-029>032-050400-
WESTERN PENNSYLVANIA

CITY           SKY/WX    TMP DP  RH WIND       PRES   REMARKS
ERIE           CLOUDY    71  60  68 CALM      29.96R
MEADVILLE      PTCLDY    68  54  60 S3        29.99R
FRANKLIN*      PTCLDY    64  52  63 W5        30.01S
NEW CASTLE     FAIR      64  58  81 CALM      30.00R
BEAVER COUNTY  NOT AVBL
BUTLER*        PTCLDY    63  55  77 CALM      30.01S
PITTSBURGH INT PTCLDY    70  57  63 W3        30.00R
PITTSBURGH     PTCLDY    72  51  47 W5        29.99R
INDIANA*       PTCLDY    63  61  94 CALM      30.03R
LATROBE        NOT AVBL
WASHINGTON CO* NOT AVBL
$$

PAZ004>006-010>012-017>019-024>028-033>037-041-042-045-046-049>053-050400-
CENTRAL PENNSYLVANIA

CITY           SKY/WX    TMP DP  RH WIND       PRES   REMARKS
BRADFORD       MOCLDY    60  56  86 CALM      30.01R
DUBOIS         PTCLDY    65  53  65 SW3       29.99S
CLEARFIELD     PTCLDY    64  55  72 CALM      29.99S
JOHNSTOWN      MOCLDY    68  51  54 SW3       30.04R
ALTOONA        PTCLDY    63  58  83 SW3       30.01R
STATE COLLEGE  PTCLDY    65  53  63 SW3       29.98S
WILLIAMSPORT   CLEAR     67  58  72 N5        29.93R
SELINSGROVE    CLEAR     60  58  92 CALM      29.94S
FT INDIANTOWN  PTCLDY    65  57  75 N1        29.93S
CAPITAL CITY   PTCLDY    70  58  65 SW5       29.93S
HARRISBURG     MOCLDY    73  60  63 CALM      29.92S
YORK           MOCLDY    66  63  90 NW3       29.93F
$$

PAZ038>040-043-044-047-048-054-055-060>062-067>071-050400-
EASTERN PENNSYLVANIA

CITY           SKY/WX    TMP DP  RH WIND       PRES   REMARKS
SCRANTON       PTCLDY    68  57  68 E7        29.94S
MOUNT POCONO   CLEAR     59  57  93 N3        29.99S
ALLENTOWN      CLEAR     70  55  59 W6        29.92F
QUAKERTOWN*    PTCLDY    64  57  77 CALM      29.94F
READING        PTCLDY    70  59  68 CALM      29.92S
LANCASTER      PTCLDY    69  60  73 CALM      29.93S
COATESVILLE    CLEAR     72  57  60 N5        29.95S
POTTSTOWN      CLEAR     67  57  70 CALM      29.94F
BLUE BELL      CLEAR     66  63  88 CALM      29.91F
DOYLESTOWN     PTCLDY    67  55  65 CALM      29.92F
WILLOW GROVE   NOT AVBL
NORTH PHILA    PTCLDY    79  48  33 NW5       29.92F
PHILADELPHIA   MOCLDY    82  52  35 N7        29.90F
$$


USA.gov is the U.S. government's official web portal to all federal, state and local government web resources and services.